User: anonymous
Location: Rehoboth Beach
(38.7438°N, 75.1341°W)
Time: 01:42:43
(UTC-04:00)
Language:

Cosmos 1452 Rocket - Orbit

View from above orbital plane
View from above orbital plane
View from above satellite
View from above satellite

Ground track
Ground track

The orbit data is extracted from the following two-line orbital elements,

1 13992U 83031B   14109.06401941  .00000360  00000-0  13352-3 0  3887
2 13992 074.0534 325.3005 0005727 239.6815 273.8556 14.35716536623000
Epoch (UTC): 19 April 2014 01:32:11
Eccentricity: 0.0005727
inclination: 74.0534°
perigee height: 768 km
apogee height: 777 km
right ascension of ascending node: 325.3005°
argument of perigee: 239.6815°
revolutions per day: 14.35716536
mean anomaly at epoch: 273.8556°
orbit number at epoch: 62300

The dashed part of the orbit path shows where the satellite is in the earth's shadow,  

DLR